Voltar ao catálogo

FENGYUN 1C DEB

AtivoSSO
NORAD 29876·DEBRIS·🇨🇳 China

Lançado May 10, 1999 de Taiyuan Satellite Launch Center

Loading…

Próximas Passagens (próximas 24 horas)

TLE

AtualizadoSource: Space-Track

Época: Sep 14, 2026, 09:30 UTC

1 29876U 99025FW  26257.39643703  .00000133  00000-0  79681-4 0  9996
2 29876  98.2969 296.5376 0059990 293.0145 134.5186 14.20451612 18295

Acompanhe FENGYUN 1C DEB em tempo real com AllMySat

Download on the App Store